Wenatchee, WA

9:47 AM PDT on April 28, 2017 (GMT -0700)
Pangborn Memorial

Weather History for KEAT - January, 2013

Change the Weather History Date:

Friday, January 4, 2013

  Actual Average Record
Temperature  
Mean Temperature 25 °F 26 °F  
Max Temperature 27 °F 31 °F 51 °F (1984)
Min Temperature 22 °F 21 °F -7 °F (2004)
Degree Days  
Heating Degree Days 40 39  
Month to date heating degree days 164 157  
Since 1 July heating degree days 2331 3255  
Cooling Degree Days 0 0  
Month to date cooling degree days 0 0  
Year to date cooling degree days 0 0  
Moisture  
Dew Point 19 °F    
Average Humidity 78    
Maximum Humidity 88    
Minimum Humidity 68    
Precipitation  
Precipitation T in 0.08 in 0.46 in (2008)
Month to date precipitation T 0.29  
Year to date precipitation T 0.29  
Snow  
Snow 0.00 in 0.70 in - ()
Month to date snowfall 2.5  
Since 1 July snowfall 27.4  
Snow Depth -    
Sea Level Pressure  
Sea Level Pressure 30.45 in    
Wind  
Wind Speed 1 mph (ENE)    
Max Wind Speed 5 mph    
Max Gust Speed 6 mph    
Visibility 9 miles    
Events Snow    
T = Trace of Precipitation, MM = Missing Value Source: NWS Daily Summary

Daily Weather History Graph

Daily Weather History Graph

Search for Another Location

Airport or City:

Trip Planner

Search our weather history database for the weather conditions in past years. The results will help you decide how hot, cold, wet, or windy it might be!

Date:

Astronomy

Jan. 04, 2013 Rise Set
Actual Time 7:47 AM PST 4:24 PM PST
Civil Twilight 7:12 AM PST 4:59 PM PST
Nautical Twilight 6:33 AM PST 5:38 PM PST
Astronomical Twilight 5:56 AM PST 6:15 PM PST
Moon No Moon Rise 11:00 AM PST (1/4)
Length of Visible Light 9h 47m
Length of Day
8h 36m
Waning Gibbous, 54% of the Moon is Illuminated
Jan 4
Waning Gibbous
Jan 4
Last Quarter
Jan 11
New
Jan 18
First Quarter
Jan 26
Full

Hourly Weather History & Observations

Time (PST) Temp. Windchill Dew Point Humidity Pressure Visibility Wind Dir Wind Speed Gust Speed Precip Events Conditions
1:55 AM 24.1 °F - 18.0 °F 77% 30.41 in 10.0 mi Calm Calm - N/A   Overcast
2:55 AM 23.0 °F - 18.0 °F 81% 30.41 in 10.0 mi Calm Calm - N/A   Overcast
5:32 AM 23.0 °F - 17.6 °F 80% 30.37 in 10.0 mi Calm Calm - N/A   Overcast
5:55 AM 23.0 °F 18.4 °F 18.0 °F 81% 30.42 in 5.0 mi East 3.5 mph - 0.00 in Snow Light Snow
6:55 AM 23.0 °F 18.4 °F 19.0 °F 85% 30.43 in 8.0 mi East 3.5 mph - 0.00 in   Overcast
7:55 AM 23.0 °F 18.4 °F 18.0 °F 81% 30.44 in 9.0 mi ENE 3.5 mph - N/A   Overcast
8:55 AM 23.0 °F - 18.0 °F 81% 30.45 in 9.0 mi Calm Calm - N/A   Overcast
9:55 AM 24.1 °F - 19.0 °F 81% 30.48 in 6.0 mi Calm Calm - N/A   Haze
10:55 AM 25.0 °F - 19.9 °F 81% 30.48 in 7.0 mi Calm Calm - N/A   Overcast
11:55 AM 26.1 °F - 19.9 °F 78% 30.46 in 8.0 mi Calm Calm - N/A   Overcast
12:55 PM 26.1 °F - 19.0 °F 75% 30.44 in 10.0 mi Calm Calm - N/A   Mostly Cloudy
1:55 PM 26.1 °F - 19.0 °F 75% 30.45 in 10.0 mi Calm Calm - N/A   Overcast
2:55 PM 26.1 °F - 19.0 °F 75% 30.45 in 10.0 mi Calm Calm - N/A   Overcast
3:55 PM 27.0 °F - 18.0 °F 69% 30.44 in 10.0 mi Calm Calm - N/A   Overcast
4:55 PM 26.1 °F - 19.0 °F 75% 30.45 in 10.0 mi Calm Calm - N/A   Overcast
5:55 PM 26.1 °F - 19.0 °F 75% 30.45 in 10.0 mi Calm Calm - N/A   Overcast
6:55 PM 26.1 °F - 19.0 °F 75% 30.45 in 10.0 mi Calm Calm - N/A   Overcast
7:55 PM 24.1 °F - 18.0 °F 77% 30.45 in 10.0 mi Calm Calm - N/A   Overcast
8:55 PM 24.1 °F 19.7 °F 19.0 °F 81% 30.47 in 10.0 mi NNW 3.5 mph - N/A   Overcast
9:55 PM 24.1 °F - 19.0 °F 81% 30.47 in 10.0 mi Calm Calm - N/A   Overcast
10:55 PM 25.0 °F - 19.0 °F 78% 30.47 in 10.0 mi Calm Calm - N/A   Overcast
11:55 PM 25.0 °F - 19.0 °F 78% 30.47 in 10.0 mi Calm Calm - N/A   Overcast